Find Local Weather

World > North America > United States > Ohio

Loveland, Ohio Regional Weather

Lat: 39.27N, Lon: 84.27W
Wx Zone: OHZ077
Warning FLW WEATHER ALERT - (More Info. Click Here) Warning
Feedback
Expires:201811121800;;200043
ASUS41 KCLE 121712
RWRCLE
OHIO REGIONAL WEATHER ROUNDUP
NATIONAL WEATHER SERVICE WILMINGTON, OH
1200 PM EST MON NOV 12 2018

NOTE: "FAIR" INDICATES FEW OR NO CLOUDS BELOW 12,000 FEET WITH NO
SIGNIFICANT WEATHER AND/OR OBSTRUCTIONS TO VISIBILITY.


OHZ042-051>053-060>062-070>072-077>081-121800-
  SOUTHWEST OHIO
  
CITY           SKY/WX    TMP DP  RH WIND       PRES   REMARKS
CINC-COVINGTON CLOUDY    41  28  60 N6        30.21F                  
CINC-LUNKEN    CLOUDY    40  29  64 NE3       30.24F                  
HAMILTON       CLOUDY    41  29  62 N3        30.25S                  
DAYTON         CLOUDY    42  25  50 E6        30.25S                  
WRIGHT-PAT AFB CLOUDY    41  24  51 NE6       30.24F                  
DAYTON GENERAL CLOUDY    41  24  51 NE7       30.23S                  
WILMINGTON     CLOUDY    38  25  59 E7        30.22F                  
$$


SKY/WX - Weather  TMP - Temperature  DP - Dew Point  RH - Relative Humidity
WIND - Wind Direction/Speed PRES - Barometric Pressure